Zurück zum Katalog

STARLINK-11632

AktivKommunikationVLEO
NORAD 63108·PAYLOAD·🇺🇸 United States

Gestartet Feb 27, 2025 von Cape Canaveral Space Force Station

Loading…

Nächste Überflüge (nächste 24 Stunden)

TLE

AktuellSource: CelesTrak SupGP

Epoche: Sep 15, 2026, 02:21 UTC

1 63108C 25039E   26258.09840278 -.00053550  00000+0 -41605-3 0  2584
2 63108  43.0005 175.2904 0001506 267.8700  69.7500 15.70857829    12

Verfolge STARLINK-11632 in Echtzeit mit AllMySat

Download on the App Store